• In Italy
  • List of Countries
  • For 7 days
  • Water Temperature
  • Satellite Maps
  • Weather Map
  • Weather Widgets
  • user-avatar
    Login

    Hourly Weather Elbasan

    Today, 24 November, Friday

    Time Temperature Precipitation Wind Pressure Humidity
    00:00 +9°C° 0 mm 1 mps 739 mmHg 66%
    01:00 +9°C° 0 mm 1 mps 739 mmHg 65%
    02:00 +9°C° 0 mm 1 mps 739 mmHg 65%
    03:00 +8°C° 0 mm 1 mps 739 mmHg 65%
    04:00 +8°C° 0 mm 1 mps 738 mmHg 64%
    05:00 +8°C° 0 mm 1 mps 739 mmHg 65%
    06:00 +8°C° 0 mm 1 mps 739 mmHg 66%
    07:00 +8°C° 0 mm 1 mps 739 mmHg 66%
    08:00 +10°C° 0 mm 1 mps 739 mmHg 62%
    09:00 +12°C° 0 mm 1 mps 739 mmHg 58%
    10:00 +14°C° 0 mm 1 mps 739 mmHg 54%
    11:00 +14°C° 0 mm 1 mps 739 mmHg 54%
    12:00 +15°C° 0 mm 1 mps 738 mmHg 54%
    13:00 +16°C° 0 mm 2 mps 738 mmHg 54%
    14:00 +14°C° 0 mm 1 mps 738 mmHg 61%
    15:00 +13°C° 0 mm 1 mps 738 mmHg 67%
    16:00 +12°C° 0 mm 1 mps 738 mmHg 74%
    17:00 +11°C° 0 mm 1 mps 738 mmHg 77%
    18:00 +10°C° 0 mm 1 mps 738 mmHg 81%
    19:00 +9°C° 0 mm 1 mps 738 mmHg 84%
    20:00 +9°C° 0 mm 1 mps 739 mmHg 84%
    21:00 +9°C° 0 mm 1 mps 739 mmHg 84%
    22:00 +9°C° 0 mm 1 mps 739 mmHg 84%
    23:00 +9°C° 0 mm 1 mps 739 mmHg 83%

    Tomorrow, 25 November, Saturday

    Time Temperature Precipitation Wind Pressure Humidity
    00:00 +8°C° 0 mm 1 mps 739 mmHg 82%
    01:00 +8°C° 0 mm 1 mps 739 mmHg 81%
    02:00 +8°C° 0 mm 1 mps 739 mmHg 80%
    03:00 +8°C° 0 mm 1 mps 738 mmHg 79%
    04:00 +8°C° 0 mm 1 mps 738 mmHg 78%
    05:00 +8°C° 0 mm 1 mps 738 mmHg 77%
    06:00 +8°C° 0 mm 1 mps 738 mmHg 76%
    07:00 +8°C° 0 mm 1 mps 738 mmHg 75%
    08:00 +10°C° 0 mm 1 mps 738 mmHg 68%
    09:00 +12°C° 0 mm 1 mps 738 mmHg 61%
    10:00 +14°C° 0 mm 1 mps 738 mmHg 53%
    11:00 +14°C° 0 mm 1 mps 738 mmHg 51%
    12:00 +15°C° 0 mm 1 mps 737 mmHg 49%
    13:00 +15°C° 0 mm 1 mps 737 mmHg 46%
    14:00 +14°C° 0 mm 1 mps 737 mmHg 52%
    15:00 +13°C° 0 mm 1 mps 737 mmHg 59%
    16:00 +12°C° 0 mm 1 mps 737 mmHg 65%
    17:00 +11°C° 0 mm 1 mps 737 mmHg 69%
    18:00 +10°C° 0 mm 1 mps 737 mmHg 72%
    19:00 +9°C° 0 mm 1 mps 737 mmHg 76%
    20:00 +9°C° 0 mm 1 mps 737 mmHg 77%
    21:00 +8°C° 0 mm 2 mps 737 mmHg 78%
    22:00 +8°C° 0 mm 2 mps 737 mmHg 79%
    23:00 +8°C° 0 mm 2 mps 737 mmHg 79%

    Day after tomorrow, 26 November, Sunday

    Time Temperature Precipitation Wind Pressure Humidity
    00:00 +8°C° 0 mm 2 mps 737 mmHg 79%
    01:00 +7°C° 0 mm 2 mps 737 mmHg 80%
    02:00 +8°C° 0 mm 2 mps 736 mmHg 79%
    03:00 +8°C° 0 mm 2 mps 736 mmHg 78%
    04:00 +8°C° 0 mm 2 mps 736 mmHg 77%
    05:00 +8°C° 0 mm 2 mps 736 mmHg 77%
    06:00 +8°C° 0 mm 3 mps 736 mmHg 77%
    07:00 +8°C° 0 mm 3 mps 736 mmHg 77%
    08:00 +9°C° 0 mm 3 mps 735 mmHg 73%
    09:00 +11°C° 0 mm 3 mps 735 mmHg 68%
    10:00 +13°C° 0 mm 3 mps 735 mmHg 63%
    11:00 +14°C° 0.1 mm 3 mps 734 mmHg 64%
    12:00 +14°C° 0.1 mm 3 mps 734 mmHg 64%
    13:00 +16°C° 0.1 mm 3 mps 733 mmHg 64%
    14:00 +14°C° 0.3 mm 3 mps 733 mmHg 70%
    15:00 +13°C° 0.3 mm 3 mps 733 mmHg 75%
    16:00 +12°C° 0.3 mm 3 mps 732 mmHg 80%
    17:00 +12°C° 0.5 mm 3 mps 732 mmHg 82%
    18:00 +12°C° 0.5 mm 3 mps 732 mmHg 84%
    19:00 +11°C° 0.5 mm 3 mps 732 mmHg 86%
    20:00 +11°C° 1.1 mm 3 mps 732 mmHg 88%
    21:00 +10°C° 1.1 mm 2 mps 732 mmHg 89%
    22:00 +10°C° 1.1 mm 2 mps 732 mmHg 91%
    23:00 +10°C° 1.1 mm 2 mps 732 mmHg 92%

    27 November, Monday

    Time Temperature Precipitation Wind Pressure Humidity
    00:00 +10°C° 1.1 mm 2 mps 731 mmHg 93%
    01:00 +11°C° 1.1 mm 1 mps 731 mmHg 93%
    02:00 +10°C° 0.4 mm 1 mps 731 mmHg 93%
    03:00 +10°C° 0.4 mm 1 mps 731 mmHg 93%
    04:00 +10°C° 0.4 mm 1 mps 730 mmHg 93%
    05:00 +10°C° 0.5 mm 1 mps 731 mmHg 92%
    06:00 +10°C° 0.5 mm 1 mps 731 mmHg 90%
    07:00 +10°C° 0.5 mm 1 mps 731 mmHg 89%
    08:00 +9°C° 1.1 mm 2 mps 731 mmHg 86%
    09:00 +9°C° 1.1 mm 2 mps 731 mmHg 82%
    10:00 +10°C° 1.1 mm 2 mps 732 mmHg 79%
    11:00 +10°C° 0.4 mm 3 mps 732 mmHg 77%
    12:00 +10°C° 0.4 mm 3 mps 732 mmHg 74%
    13:00 +10°C° 0.4 mm 3 mps 732 mmHg 72%
    14:00 +9°C° 0.1 mm 3 mps 732 mmHg 73%
    15:00 +9°C° 0.1 mm 3 mps 732 mmHg 75%
    16:00 +8°C° 0.1 mm 3 mps 733 mmHg 76%
    17:00 +8°C° 0 mm 3 mps 733 mmHg 77%
    18:00 +7°C° 0 mm 3 mps 733 mmHg 78%
    19:00 +5°C° 0 mm 3 mps 733 mmHg 79%
    20:00 +5°C° 0 mm 3 mps 734 mmHg 79%
    21:00 +5°C° 0 mm 3 mps 734 mmHg 79%
    22:00 +4°C° 0 mm 3 mps 734 mmHg 79%
    23:00 +4°C° 0 mm 3 mps 734 mmHg 80%

    28 November, Tuesday

    Time Temperature Precipitation Wind Pressure Humidity
    00:00 +4°C° 0 mm 3 mps 734 mmHg 80%
    01:00 +3°C° 0 mm 3 mps 734 mmHg 80%
    02:00 +3°C° 0 mm 3 mps 734 mmHg 80%
    03:00 +4°C° 0 mm 2 mps 734 mmHg 80%
    04:00 +4°C° 0 mm 2 mps 734 mmHg 80%
    05:00 +4°C° 0 mm 2 mps 734 mmHg 79%
    06:00 +4°C° 0 mm 2 mps 734 mmHg 79%
    07:00 +4°C° 0 mm 2 mps 734 mmHg 79%
    08:00 +5°C° 0 mm 2 mps 734 mmHg 73%
    09:00 +6°C° 0 mm 2 mps 735 mmHg 67%
    10:00 +7°C° 0 mm 2 mps 735 mmHg 62%
    11:00 +8°C° 0 mm 2 mps 735 mmHg 60%
    12:00 +9°C° 0 mm 2 mps 734 mmHg 59%
    13:00 +9°C° 0 mm 3 mps 734 mmHg 57%
    14:00 +8°C° 0 mm 2 mps 734 mmHg 61%
    15:00 +8°C° 0 mm 2 mps 734 mmHg 66%
    16:00 +7°C° 0 mm 2 mps 734 mmHg 70%
    17:00 +6°C° 0 mm 2 mps 735 mmHg 72%
    18:00 +5°C° 0 mm 2 mps 735 mmHg 74%
    19:00 +5°C° 0 mm 2 mps 735 mmHg 76%
    20:00 +5°C° 0 mm 1 mps 735 mmHg 77%
    21:00 +5°C° 0 mm 1 mps 735 mmHg 77%
    22:00 +5°C° 0 mm 1 mps 735 mmHg 78%
    23:00 +5°C° 0 mm 1 mps 735 mmHg 77%

    29 November, Wednesday

    Time Temperature Precipitation Wind Pressure Humidity
    00:00 +5°C° 0 mm 1 mps 735 mmHg 77%
    01:00 +5°C° 0 mm 1 mps 735 mmHg 77%
    02:00 +5°C° 0 mm 1 mps 735 mmHg 76%
    03:00 +5°C° 0 mm 1 mps 735 mmHg 75%
    04:00 +5°C° 0 mm 1 mps 735 mmHg 74%
    05:00 +5°C° 0 mm 1 mps 735 mmHg 74%
    06:00 +5°C° 0 mm 1 mps 735 mmHg 73%
    07:00 +5°C° 0 mm 1 mps 735 mmHg 73%
    08:00 +7°C° 0 mm 1 mps 735 mmHg 67%
    09:00 +7°C° 0 mm 2 mps 735 mmHg 61%
    10:00 +9°C° 0 mm 2 mps 736 mmHg 55%
    11:00 +10°C° 0 mm 2 mps 735 mmHg 54%
    12:00 +10°C° 0 mm 2 mps 735 mmHg 53%
    13:00 +12°C° 0 mm 2 mps 735 mmHg 52%
    14:00 +10°C° 0 mm 2 mps 735 mmHg 59%
    15:00 +8°C° 0 mm 2 mps 735 mmHg 66%
    16:00 +8°C° 0 mm 1 mps 735 mmHg 73%
    17:00 +7°C° 0 mm 2 mps 735 mmHg 76%
    18:00 +6°C° 0 mm 2 mps 735 mmHg 80%
    19:00 +5°C° 0 mm 2 mps 736 mmHg 83%
    20:00 +5°C° 0 mm 2 mps 736 mmHg 84%
    21:00 +5°C° 0 mm 2 mps 736 mmHg 85%
    22:00 +5°C° 0 mm 2 mps 736 mmHg 86%
    23:00 +5°C° 0 mm 2 mps 736 mmHg 85%
    Show more